• Em Portugal
  • Lista de países
  • Para 7 dias
  • Temperatura da água
  • Mapas de satélite
  • Mapa do tempo
  • Widgets de tempo
  • user-avatar
    Iniciar Sessão

    Previsão horária em Konstantyna

    Hoje, 23 Outubro, Terça-feira

    Tempo Temperatura Precipitação Vento Pressão Humidade
    00:00 +14°C° 0 mm 4 m/s 712 mmHg 81%
    01:00 +14°C° 0 mm 4 m/s 712 mmHg 82%
    02:00 +13°C° 0 mm 4 m/s 712 mmHg 83%
    03:00 +13°C° 0 mm 4 m/s 712 mmHg 84%
    04:00 +13°C° 0.1 mm 3 m/s 712 mmHg 85%
    05:00 +13°C° 0.1 mm 3 m/s 712 mmHg 86%
    06:00 +14°C° 0 mm 2 m/s 712 mmHg 87%
    07:00 +14°C° 0.1 mm 3 m/s 713 mmHg 82%
    08:00 +15°C° 0.1 mm 4 m/s 713 mmHg 77%
    09:00 +16°C° 0.1 mm 5 m/s 714 mmHg 71%
    10:00 +16°C° 0.1 mm 5 m/s 714 mmHg 68%
    11:00 +17°C° 0.1 mm 5 m/s 714 mmHg 65%
    12:00 +17°C° 0.1 mm 6 m/s 714 mmHg 61%
    13:00 +17°C° 0 mm 6 m/s 714 mmHg 61%
    14:00 +17°C° 0 mm 6 m/s 713 mmHg 61%
    15:00 +17°C° 0 mm 6 m/s 713 mmHg 61%
    16:00 +16°C° 0 mm 5 m/s 713 mmHg 66%
    17:00 +15°C° 0 mm 4 m/s 713 mmHg 71%
    18:00 +14°C° 0 mm 3 m/s 713 mmHg 77%
    19:00 +14°C° 0 mm 3 m/s 713 mmHg 79%
    20:00 +15°C° 0 mm 2 m/s 713 mmHg 81%
    21:00 +14°C° 0 mm 2 m/s 714 mmHg 83%
    22:00 +14°C° 0 mm 2 m/s 713 mmHg 84%
    23:00 +14°C° 0 mm 2 m/s 713 mmHg 85%

    Amanhã, 24 Outubro, Quarta-feira

    Tempo Temperatura Precipitação Vento Pressão Humidade
    00:00 +14°C° 0 mm 2 m/s 713 mmHg 86%
    01:00 +14°C° 0 mm 2 m/s 713 mmHg 87%
    02:00 +14°C° 0 mm 2 m/s 713 mmHg 88%
    03:00 +13°C° 0 mm 2 m/s 713 mmHg 89%
    04:00 +13°C° 0.1 mm 2 m/s 713 mmHg 89%
    05:00 +13°C° 0.1 mm 2 m/s 713 mmHg 89%
    06:00 +14°C° 0.1 mm 2 m/s 713 mmHg 90%
    07:00 +15°C° 0 mm 2 m/s 713 mmHg 83%
    08:00 +16°C° 0 mm 3 m/s 714 mmHg 77%
    09:00 +17°C° 0 mm 3 m/s 714 mmHg 71%
    10:00 +17°C° 0 mm 4 m/s 714 mmHg 67%
    11:00 +18°C° 0 mm 4 m/s 714 mmHg 63%
    12:00 +19°C° 0 mm 4 m/s 714 mmHg 60%
    13:00 +19°C° 0 mm 4 m/s 713 mmHg 60%
    14:00 +19°C° 0 mm 4 m/s 713 mmHg 60%
    15:00 +19°C° 0 mm 4 m/s 713 mmHg 60%
    16:00 +18°C° 0 mm 3 m/s 713 mmHg 65%
    17:00 +17°C° 0 mm 3 m/s 712 mmHg 70%
    18:00 +16°C° 0 mm 2 m/s 712 mmHg 75%
    19:00 +15°C° 0 mm 2 m/s 713 mmHg 78%
    20:00 +15°C° 0 mm 1 m/s 713 mmHg 80%
    21:00 +14°C° 0 mm 1 m/s 713 mmHg 83%
    22:00 +14°C° 0 mm 1 m/s 713 mmHg 83%
    23:00 +14°C° 0 mm 1 m/s 713 mmHg 84%

    Depois de amanhã, 25 Outubro, Quinta-feira

    Tempo Temperatura Precipitação Vento Pressão Humidade
    00:00 +14°C° 0 mm 1 m/s 712 mmHg 85%
    01:00 +13°C° 0 mm 1 m/s 712 mmHg 85%
    02:00 +13°C° 0 mm 1 m/s 712 mmHg 85%
    03:00 +13°C° 0 mm 1 m/s 712 mmHg 85%
    04:00 +13°C° 0 mm 1 m/s 712 mmHg 84%
    05:00 +13°C° 0 mm 1 m/s 712 mmHg 84%
    06:00 +13°C° 0 mm 1 m/s 712 mmHg 84%
    07:00 +14°C° 0 mm 1 m/s 713 mmHg 76%
    08:00 +16°C° 0 mm 1 m/s 713 mmHg 68%
    09:00 +19°C° 0 mm 1 m/s 714 mmHg 60%
    10:00 +20°C° 0 mm 1 m/s 714 mmHg 55%
    11:00 +19°C° 0 mm 0 m/s 714 mmHg 51%
    12:00 +20°C° 0 mm 0 m/s 714 mmHg 46%
    13:00 +22°C° 0 mm 1 m/s 713 mmHg 45%
    14:00 +22°C° 0 mm 1 m/s 713 mmHg 44%
    15:00 +23°C° 0 mm 1 m/s 713 mmHg 42%
    16:00 +21°C° 0 mm 1 m/s 713 mmHg 48%
    17:00 +20°C° 0 mm 1 m/s 712 mmHg 54%
    18:00 +19°C° 0 mm 1 m/s 712 mmHg 60%
    19:00 +19°C° 0 mm 1 m/s 712 mmHg 62%
    20:00 +18°C° 0 mm 1 m/s 713 mmHg 63%
    21:00 +18°C° 0 mm 1 m/s 713 mmHg 65%
    22:00 +18°C° 0 mm 1 m/s 712 mmHg 63%
    23:00 +16°C° 0 mm 2 m/s 712 mmHg 62%

    26 Outubro, Sexta-feira

    Tempo Temperatura Precipitação Vento Pressão Humidade
    00:00 +16°C° 0 mm 2 m/s 712 mmHg 61%
    01:00 +16°C° 0 mm 2 m/s 712 mmHg 61%
    02:00 +16°C° 0 mm 2 m/s 711 mmHg 61%
    03:00 +15°C° 0 mm 2 m/s 711 mmHg 61%
    04:00 +15°C° 0 mm 2 m/s 711 mmHg 62%
    05:00 +15°C° 0 mm 2 m/s 711 mmHg 62%
    06:00 +14°C° 0 mm 2 m/s 711 mmHg 63%
    07:00 +16°C° 0 mm 2 m/s 711 mmHg 57%
    08:00 +18°C° 0 mm 3 m/s 712 mmHg 51%
    09:00 +20°C° 0 mm 3 m/s 712 mmHg 44%
    10:00 +21°C° 0 mm 3 m/s 712 mmHg 40%
    11:00 +22°C° 0 mm 3 m/s 712 mmHg 36%
    12:00 +25°C° 0 mm 4 m/s 711 mmHg 31%
    13:00 +25°C° 0 mm 4 m/s 711 mmHg 32%
    14:00 +25°C° 0 mm 4 m/s 711 mmHg 32%
    15:00 +25°C° 0 mm 4 m/s 710 mmHg 32%
    16:00 +22°C° 0 mm 4 m/s 710 mmHg 37%
    17:00 +20°C° 0 mm 3 m/s 710 mmHg 41%
    18:00 +19°C° 0 mm 2 m/s 710 mmHg 46%
    19:00 +18°C° 0 mm 2 m/s 710 mmHg 48%
    20:00 +18°C° 0 mm 2 m/s 710 mmHg 50%
    21:00 +17°C° 0 mm 3 m/s 710 mmHg 53%
    22:00 +17°C° 0 mm 3 m/s 710 mmHg 54%
    23:00 +16°C° 0 mm 3 m/s 710 mmHg 55%

    27 Outubro, Sábado

    Tempo Temperatura Precipitação Vento Pressão Humidade
    00:00 +16°C° 0 mm 3 m/s 709 mmHg 56%
    01:00 +16°C° 0 mm 3 m/s 709 mmHg 57%
    02:00 +14°C° 0 mm 3 m/s 708 mmHg 57%
    03:00 +14°C° 0 mm 3 m/s 708 mmHg 58%
    04:00 +14°C° 0 mm 3 m/s 708 mmHg 58%
    05:00 +14°C° 0 mm 3 m/s 708 mmHg 58%
    06:00 +13°C° 0 mm 3 m/s 708 mmHg 59%
    07:00 +15°C° 0 mm 4 m/s 708 mmHg 53%
    08:00 +19°C° 0 mm 5 m/s 708 mmHg 47%
    09:00 +21°C° 0 mm 6 m/s 708 mmHg 41%
    10:00 +21°C° 0 mm 7 m/s 708 mmHg 39%
    11:00 +22°C° 0 mm 7 m/s 708 mmHg 38%
    12:00 +23°C° 0 mm 7 m/s 707 mmHg 36%
    13:00 +23°C° 0 mm 7 m/s 707 mmHg 39%
    14:00 +22°C° 0 mm 7 m/s 706 mmHg 41%
    15:00 +22°C° 0 mm 7 m/s 706 mmHg 44%
    16:00 +21°C° 0 mm 6 m/s 705 mmHg 47%
    17:00 +20°C° 0 mm 5 m/s 705 mmHg 50%
    18:00 +19°C° 0 mm 4 m/s 705 mmHg 54%
    19:00 +19°C° 0 mm 4 m/s 705 mmHg 55%
    20:00 +19°C° 0 mm 4 m/s 704 mmHg 56%
    21:00 +19°C° 0 mm 4 m/s 704 mmHg 57%
    22:00 +18°C° 0.5 mm 4 m/s 703 mmHg 62%
    23:00 +18°C° 0.5 mm 4 m/s 703 mmHg 66%

    28 Outubro, Domingo

    Tempo Temperatura Precipitação Vento Pressão Humidade
    00:00 +17°C° 0.5 mm 5 m/s 702 mmHg 71%
    01:00 +16°C° 0.2 mm 5 m/s 702 mmHg 71%
    02:00 +17°C° 0.2 mm 4 m/s 701 mmHg 72%
    03:00 +17°C° 0.2 mm 4 m/s 700 mmHg 73%
    04:00 +17°C° 0.1 mm 4 m/s 700 mmHg 73%
    05:00 +15°C° 0.1 mm 4 m/s 700 mmHg 74%
    06:00 +15°C° 0.1 mm 4 m/s 699 mmHg 75%
    07:00 +16°C° 0.1 mm 5 m/s 699 mmHg 68%
    08:00 +18°C° 0.1 mm 7 m/s 700 mmHg 61%
    09:00 +20°C° 0.1 mm 8 m/s 700 mmHg 54%
    10:00 +18°C° 1.3 mm 8 m/s 699 mmHg 59%
    11:00 +17°C° 1.3 mm 8 m/s 699 mmHg 64%
    12:00 +16°C° 1.3 mm 9 m/s 698 mmHg 69%
    13:00 +15°C° 2.5 mm 8 m/s 698 mmHg 73%
    14:00 +14°C° 2.5 mm 7 m/s 699 mmHg 77%
    15:00 +11°C° 2.5 mm 6 m/s 699 mmHg 81%
    16:00 +12°C° 0.8 mm 5 m/s 699 mmHg 80%
    17:00 +10°C° 0.8 mm 5 m/s 699 mmHg 78%
    18:00 +10°C° 0.8 mm 4 m/s 700 mmHg 77%
    19:00 +10°C° 0.6 mm 4 m/s 700 mmHg 77%
    20:00 +9°C° 0.6 mm 5 m/s 701 mmHg 76%
    21:00 +9°C° 0.6 mm 5 m/s 701 mmHg 76%
    22:00 +8°C° 0.7 mm 5 m/s 701 mmHg 77%
    23:00 +7°C° 0.7 mm 5 m/s 701 mmHg 78%

    29 Outubro, Segunda-feira

    Tempo Temperatura Precipitação Vento Pressão Humidade
    00:00 +6°C° 0.7 mm 5 m/s 701 mmHg 79%
    01:00 +6°C° 0.6 mm 5 m/s 701 mmHg 76%
    02:00 +6°C° 0.6 mm 5 m/s 701 mmHg 73%
    03:00 +6°C° 0.6 mm 4 m/s 701 mmHg 70%
    04:00 +6°C° 0.1 mm 5 m/s 701 mmHg 69%
    05:00 +6°C° 0.1 mm 5 m/s 701 mmHg 67%
    06:00 +4°C° 0.1 mm 6 m/s 701 mmHg 66%
    07:00 +5°C° 0.1 mm 7 m/s 702 mmHg 62%
    08:00 +6°C° 0.1 mm 8 m/s 702 mmHg 59%
    09:00 +7°C° 0.1 mm 8 m/s 703 mmHg 56%
    10:00 +7°C° 0.1 mm 9 m/s 703 mmHg 53%
    11:00 +8°C° 0.1 mm 9 m/s 703 mmHg 50%
    12:00 +10°C° 0.1 mm 9 m/s 703 mmHg 47%
    13:00 +8°C° 0.1 mm 9 m/s 703 mmHg 47%
    14:00 +8°C° 0.1 mm 9 m/s 702 mmHg 47%
    15:00 +8°C° 0.1 mm 9 m/s 702 mmHg 48%
    16:00 +9°C° 0.2 mm 8 m/s 703 mmHg 52%
    17:00 +7°C° 0.2 mm 8 m/s 703 mmHg 56%
    18:00 +6°C° 0.2 mm 7 m/s 703 mmHg 60%
    19:00 +6°C° 0.3 mm 7 m/s 704 mmHg 62%
    20:00 +6°C° 0.3 mm 7 m/s 704 mmHg 64%
    21:00 +7°C° 0.3 mm 6 m/s 705 mmHg 66%
    22:00 +7°C° 0.5 mm 6 m/s 705 mmHg 67%
    23:00 +7°C° 0.5 mm 6 m/s 705 mmHg 68%
    Mostrar mais